Theta_e
298 292 289 293 295 295 293 291 290 294 298 295 294 295 296 299 298 297 298 296 298 299 300 300 300 300 300 300 301 302 302 304 306 306 307 308 308 311 312 312 313 313 311 310
293 289 296 298 297 295 293 290 289 294 297 294 292 292 296 298 298 297 296 297 297 297 297 297 296 297 297 297 298 298 300 301 302 303 305 306 306 306 308 310 311 311 310 308
292 296 299 297 295 293 292 290 291 290 292 293 290 288 292 296 296 297 296 296 295 294 293 293 293 293 294 294 295 296 297 298 300 300 301 301 302 302 301 301 304 307 309 307
295 296 295 293 292 293 288 293 292 290 287 282 290 279 288 293 292 294 293 292 292 292 293 293 293 292 292 293 294 294 295 296 298 298 298 297 297 297 298 299 301 304 306 305
293 292 291 291 292 294 290 292 290 289 286 284 286 282 287 292 289 290 291 292 291 292 292 292 292 293 293 293 293 293 292 293 295 296 295 295 294 296 297 298 298 299 301 302
293 294 293 293 294 293 293 290 290 289 286 279 287 285 286 288 289 289 291 292 292 292 291 292 292 292 292 292 291 291 291 291 292 293 294 293 292 292 293 293 294 295 297 298
292 292 293 294 290 291 289 286 281 280 278 279 289 286 289 291 292 292 292 291 290 289 289 289 289 290 290 291 290 291 290 290 291 291 291 291 291 291 291 291 291 291 293 294
287 286 292 293 292 289 289 288 280 274 276 280 286 281 289 292 293 293 291 290 289 288 288 288 288 288 289 289 289 289 290 288 289 289 290 291 290 290 290 290 291 291 291 293
287 287 292 292 293 293 289 286 291 284 280 280 283 288 291 292 291 291 289 287 286 286 287 287 288 288 288 288 288 288 288 288 287 287 288 288 289 288 288 288 288 289 290 292
292 285 292 289 291 290 288 289 282 284 276 271 279 281 285 288 289 288 286 285 286 285 285 285 286 286 287 287 286 287 287 286 286 286 286 287 287 287 287 286 285 285 286 288
293 289 287 291 288 287 285 284 285 286 283 277 276 279 289 288 289 286 286 286 285 284 283 284 284 286 286 286 285 284 285 285 284 284 284 284 285 286 285 284 283 283 284 285
293 288 282 286 292 292 289 288 288 281 278 282 283 282 290 288 287 287 286 286 286 286 284 283 284 283 284 283 283 283 283 284 284 284 283 283 284 284 284 283 282 282 282 283
292 285 274 278 285 289 286 288 288 287 284 281 278 279 288 287 285 285 284 282 283 284 282 282 282 282 282 283 284 284 284 284 284 284 282 282 281 281 282 282 280 280 281 281
294 287 280 275 280 284 280 283 285 284 279 279 279 281 285 287 286 283 282 281 280 280 281 283 281 281 282 283 282 282 282 283 283 282 281 280 280 281 282 282 280 278 279 280
289 277 281 283 284 283 280 280 281 278 280 275 278 279 283 285 286 281 282 281 280 280 280 280 281 280 281 281 281 282 282 282 282 281 280 280 281 281 281 280 280 279 278 279
286 272 277 270 280 280 278 280 280 280 280 280 281 280 286 284 280 279 279 279 279 280 281 281 281 281 281 281 281 282 281 281 281 280 280 281 281 281 280 280 280 279 278 278
279 275 268 265 276 274 267 274 277 278 280 279 275 279 278 277 278 277 277 278 279 279 280 280 280 280 280 281 282 280 281 281 280 280 281 280 280 280 280 280 279 279 277 277
278 273 271 264 265 257 274 278 276 275 277 277 276 274 275 276 277 277 278 278 278 279 279 280 280 280 281 281 280 280 280 279 279 278 279 279 279 279 279 279 278 278 278 276
281 277 267 262 261 270 274 275 273 272 271 275 274 275 277 277 276 275 280 280 279 280 280 281 281 281 280 279 279 278 278 278 277 277 277 277 277 277 277 276 277 277 276 276
276 277 272 260 259 257 270 274 278 275 265 273 273 274 275 276 268 274 279 280 280 281 281 280 279 279 278 277 277 276 276 275 274 275 275 275 274 273 273 274 274 275 275 274
263 264 267 269 266 267 274 276 277 264 268 275 275 276 276 274 276 279 280 279 279 279 279 278 276 276 276 276 274 273 272 271 272 272 271 270 270 268 268 268 269 269 269 270
267 263 262 261 259 260 276 275 269 274 278 276 278 278 277 278 278 279 279 278 277 276 276 276 274 273 274 273 271 270 269 270 269 268 267 265 264 264 264 263 263 264 264 264
266 271 266 268 267 276 276 276 279 279 276 279 278 279 278 278 277 277 276 275 275 274 274 273 270 270 270 270 268 266 267 267 266 263 261 261 261 261 262 261 261 261 261 261
272 275 270 269 274 276 278 279 279 279 279 279 279 279 278 277 276 275 274 274 273 272 271 270 267 266 266 266 266 264 265 264 262 260 260 260 260 260 260 261 261 260 260 260
274 274 271 271 276 277 278 279 280 280 280 279 278 277 276 274 273 273 271 270 270 269 269 267 265 265 264 264 263 262 262 261 260 260 260 259 260 259 260 261 261 261 262 262
277 275 272 271 277 277 277 279 280 279 278 277 277 273 274 272 271 270 269 268 267 266 265 264 264 263 262 261 261 261 261 260 259 258 258 258 258 259 259 259 259 265 267 268
Wind_Speed
5 4 6 10 11 13 10 9 13 11 10 12 12 13 10 14 12 14 13 3 18 20 19 20 19 18 19 18 18 17 11 8 5 3 3 2 1 1 2 2 4 5 6 7
3 6 12 6 9 9 9 11 13 9 8 9 10 15 21 19 13 2 10 13 16 17 19 18 17 17 17 16 16 17 16 14 8 5 3 3 2 2 2 1 3 3 4 6
9 7 12 9 8 10 10 8 11 10 8 7 8 9 8 3 11 17 21 18 19 17 14 14 15 15 14 16 15 15 16 15 12 10 6 5 4 4 4 3 2 2 4 4
9 3 2 5 7 7 8 3 4 6 6 4 9 7 6 8 12 16 17 15 14 13 12 13 13 15 15 13 11 13 14 15 14 15 9 9 4 3 3 3 3 3 5 5
3 6 5 5 6 3 4 3 3 7 5 6 9 5 7 17 11 11 11 12 11 9 10 11 11 12 11 10 10 10 13 14 14 13 12 8 8 5 4 4 8 6 2 3
9 4 4 6 2 2 3 3 9 8 4 2 4 3 5 5 15 8 11 10 9 8 8 8 8 9 9 8 9 9 11 12 12 11 11 11 10 9 7 7 6 6 4 4
6 9 4 3 2 3 1 4 4 4 1 6 7 6 4 5 12 16 14 10 9 7 7 7 8 8 7 8 7 7 9 12 11 10 9 10 9 8 7 7 6 7 5 3
4 2 8 6 5 2 7 2 4 6 3 7 8 6 4 11 13 14 13 10 9 8 7 8 8 7 7 7 8 9 8 9 10 12 12 10 9 6 6 6 6 7 7 7
3 4 3 2 3 3 2 2 3 3 3 2 5 6 5 10 12 11 11 9 8 7 7 7 7 6 6 7 8 8 7 7 7 7 6 7 7 7 7 7 6 5 7 9
3 5 2 2 3 2 2 2 2 3 3 5 6 5 5 11 12 11 8 8 7 6 7 6 5 6 5 5 5 5 4 3 4 5 4 5 5 6 7 7 8 8 9 10
1 4 4 6 3 5 1 1 3 1 4 4 7 6 5 12 10 9 7 6 6 5 5 5 4 4 4 3 4 4 5 5 5 5 5 5 4 4 3 4 6 8 9 10
2 3 5 7 8 7 4 6 4 5 5 5 4 9 7 12 9 7 6 5 5 3 5 4 3 3 2 2 3 4 4 6 4 3 4 5 5 4 5 4 5 6 6 8
2 1 3 9 2 6 6 4 3 3 2 6 6 6 7 10 8 3 7 3 1 1 2 2 3 4 6 7 7 7 6 5 4 3 4 4 5 5 5 6 5 6 7 7
3 4 6 8 6 6 3 5 9 6 5 6 12 15 22 22 4 6 6 4 4 2 4 2 3 4 4 5 5 6 6 6 6 6 6 6 6 7 8 8 6 6 6 7
1 5 6 11 12 7 5 10 15 9 14 11 22 21 23 16 16 7 6 3 2 5 5 5 4 4 5 5 5 5 5 6 6 6 6 8 8 10 11 10 8 7 7 8
1 4 2 6 5 9 13 18 14 17 17 18 19 23 17 7 5 6 7 7 5 6 5 4 5 6 6 7 7 6 6 7 6 7 8 8 9 12 12 12 12 9 9 10
6 3 2 7 3 5 9 13 18 16 18 17 18 16 2 2 3 5 4 3 6 6 4 5 5 5 6 7 5 4 6 6 7 7 10 11 13 14 15 14 13 13 11 10
6 5 3 5 5 3 7 5 2 5 8 5 4 3 5 5 1 2 3 6 4 4 4 5 5 5 6 4 4 4 5 5 6 9 11 12 14 16 16 16 17 17 14 14
9 5 2 4 7 7 15 4 2 4 8 2 4 5 5 4 6 3 4 4 4 6 6 5 4 5 3 4 5 5 7 8 7 10 11 12 13 14 16 16 17 17 16 17
2 7 6 2 5 9 6 4 6 4 7 6 6 4 3 2 3 9 5 5 7 7 5 5 6 5 6 6 5 7 8 10 12 13 13 12 12 14 16 17 19 17 16 18
3 1 11 12 8 7 3 8 5 6 10 3 6 4 4 4 8 12 7 6 4 1 5 7 7 7 6 7 9 12 12 13 13 12 14 15 15 14 15 17 17 18 19 20
8 7 5 2 2 7 2 4 7 6 1 6 6 7 7 8 9 7 8 4 6 6 7 7 7 9 9 9 10 13 15 15 14 14 14 15 15 13 14 17 17 18 18 20
2 9 6 8 7 3 5 6 7 3 5 7 7 11 8 8 7 5 3 5 6 5 5 3 4 10 10 9 9 14 15 15 16 15 15 15 15 14 14 15 16 15 15 15
5 6 3 5 8 12 15 9 8 8 7 7 9 9 4 7 1 1 2 2 4 4 6 5 7 10 13 10 11 11 14 14 15 16 17 15 15 16 15 12 12 13 13 13
8 2 5 6 11 15 15 13 14 15 11 9 3 4 4 4 2 1 1 2 4 5 6 7 9 11 13 13 13 12 13 13 15 16 15 16 13 15 15 14 13 13 15 16
12 17 10 10 14 12 14 10 7 6 5 3 5 4 4 4 2 2 1 2 3 5 7 9 9 11 13 13 14 14 12 12 14 15 14 13 13 13 13 14 14 24 31 34
Wind_Direction
201 220 210 231 234 243 273 314 302 303 308 290 286 302 308 277 279 284 283 287 85 72 62 49 37 36 31 30 29 20 21 24 55 79 86 55 211 201 174 196 196 194 181 177
122 228 242 299 332 314 308 295 288 280 294 336 321 301 278 284 279 14 64 65 77 66 52 45 39 32 36 28 31 28 21 23 20 34 36 63 48 14 34 322 204 212 207 181
216 261 329 305 276 276 270 267 299 314 338 289 302 276 259 57 75 79 63 68 57 56 55 46 44 37 30 34 32 29 26 24 22 13 22 22 28 22 17 351 314 234 208 183
242 157 193 272 271 260 279 271 325 320 342 286 42 272 307 275 86 70 70 64 56 52 47 43 38 41 35 26 22 36 32 30 25 20 23 24 25 24 355 344 344 271 197 202
231 154 177 222 240 244 232 46 302 270 260 306 250 263 253 102 107 97 84 79 74 69 66 51 50 44 38 29 26 23 30 28 25 32 31 25 19 2 344 353 348 342 307 234
254 129 199 215 227 267 61 262 252 248 201 290 296 251 293 28 135 111 102 97 91 77 67 62 51 48 38 25 23 27 31 26 21 24 30 31 18 4 2 358 355 337 305 252
205 200 216 173 216 121 191 264 318 346 71 213 43 354 294 59 138 135 125 108 99 86 77 59 57 43 42 39 35 34 24 25 19 25 24 27 17 10 11 359 348 332 320 321
243 269 153 169 212 96 196 285 171 242 199 264 343 253 252 113 97 101 101 101 87 75 60 63 58 53 47 33 30 30 39 35 19 13 7 9 18 12 1 356 357 352 332 332
305 233 104 141 72 137 87 207 323 277 57 313 226 240 97 121 122 116 103 86 70 63 65 65 52 53 58 42 36 44 33 36 24 22 12 3 8 3 358 353 350 341 336 338
36 295 264 88 107 58 154 23 328 15 263 242 263 266 264 163 141 109 88 89 75 58 60 60 72 68 46 64 58 57 52 73 39 38 10 2 1 6 351 351 350 342 334 332
191 229 270 3 196 205 154 243 192 138 153 240 272 268 97 90 97 97 101 97 93 100 86 68 54 55 73 75 54 40 35 35 27 19 348 344 345 353 333 327 327 327 323 322
81 112 260 233 294 317 289 284 250 201 224 231 269 250 111 112 107 118 139 131 143 137 130 131 117 89 60 45 37 30 25 17 14 352 325 323 325 328 298 283 286 283 277 286
119 152 323 325 78 35 58 358 338 350 186 215 266 260 135 132 136 148 128 123 111 87 62 70 16 28 11 6 1 3 357 340 327 325 309 306 295 278 280 273 276 278 281 291
45 181 199 230 258 75 263 248 255 256 272 301 268 292 291 296 323 149 158 163 93 342 303 289 340 357 349 335 324 321 320 326 323 323 319 311 302 303 298 292 275 292 303 306
8 223 198 252 271 293 274 268 276 263 258 249 269 277 274 293 304 129 167 182 83 1 344 335 263 243 246 251 258 276 284 292 293 296 298 297 301 307 306 305 296 295 292 289
85 250 128 276 218 255 262 258 260 260 261 260 261 267 277 308 60 69 58 37 346 317 312 321 328 304 263 247 243 250 260 270 276 280 285 286 294 298 297 295 292 277 282 286
171 180 98 266 91 25 305 243 243 254 259 263 266 273 5 163 90 67 51 287 268 269 303 319 301 295 286 270 242 264 276 281 283 280 288 292 294 294 292 292 289 285 283 284
166 141 132 249 56 230 240 87 148 229 265 283 271 180 201 174 69 29 271 262 309 336 309 305 290 288 298 317 350 334 323 305 285 280 279 282 284 281 284 289 286 286 287 288
214 191 246 184 201 298 306 308 128 174 271 167 208 208 195 207 346 310 321 21 326 312 298 284 298 307 322 356 10 326 298 289 282 284 282 282 281 282 285 284 285 284 284 283
327 199 184 133 189 218 232 160 132 117 279 242 140 156 176 13 337 289 299 295 281 283 293 343 344 351 4 346 340 323 312 306 301 303 305 310 307 300 297 298 297 295 292 286
106 1 212 230 240 274 216 142 127 108 262 191 144 171 217 244 234 261 268 273 274 329 8 12 1 334 333 349 341 316 312 309 313 318 316 312 311 311 306 302 299 299 296 292
156 160 208 177 214 281 141 72 153 214 155 158 186 214 242 250 264 276 266 327 15 11 11 10 342 325 334 339 332 316 311 318 319 313 310 307 304 301 298 293 290 286 285 283
240 200 184 172 202 188 216 196 225 256 189 225 238 268 253 262 256 277 5 2 348 6 358 357 343 320 320 328 329 310 314 318 313 310 304 302 298 294 290 289 288 288 284 281
264 248 202 61 252 256 259 246 235 248 242 263 271 262 214 241 277 74 53 348 332 333 339 347 332 314 312 323 318 309 313 313 310 305 304 301 297 295 288 282 280 280 280 279
207 101 216 241 251 261 263 260 263 265 265 260 239 186 181 155 141 111 55 341 329 333 332 336 319 311 310 316 313 311 311 311 305 303 303 303 297 294 293 285 283 278 273 271
226 237 238 245 250 248 258 258 252 222 244 268 179 154 122 94 73 39 35 351 343 330 325 313 309 307 306 309 307 307 305 302 304 306 303 299 297 294 291 291 288 281 286 288